Location: Ardick
(31.4613°N, 81.4334°W)
Time: 02:37:34
(UTC+00:00)

X-37B - Visible Passes

Search period start: 18 September 2021 00:00
Search period end: 28 September 2021 00:00
Orbit: 381 x 393 km, 45.0° (Epoch: 29 August)

Date Brightness Start Highest point End Pass type
(mag) Time Alt. Az. Time Alt. Az. Time Alt. Az.
18 Sep 2.0 10:08:50 14° SSW 10:11:11 34° SE 10:14:05 10° ENE visible
19 Sep 3.4 09:13:37 15° ESE 09:13:37 15° ESE 09:14:56 10° E visible
19 Sep 1.1 10:46:19 10° WSW 10:49:21 44° NNW 10:52:24 10° NE visible
20 Sep 0.4 09:50:37 67° SW 09:50:58 83° SE 09:54:07 10° NE visible
21 Sep 4.0 08:55:11 12° ENE 08:55:11 12° ENE 08:55:34 10° ENE visible
21 Sep 2.1 10:27:29 15° WNW 10:29:19 24° NNW 10:31:57 10° NNE visible
22 Sep 2.2 09:31:58 29° NNE 09:31:58 29° NNE 09:33:52 10° NE visible
23 Sep 2.8 10:08:40 14° NW 10:09:23 15° NNW 10:11:19 10° NNE visible
24 Sep 3.7 09:13:02 12° NNE 09:13:02 12° NNE 09:13:24 10° NNE visible
25 Sep 3.3 09:49:38 10° NNW 09:49:38 10° NNW 09:50:12 10° N visible
